Date String (YYYY-MM-DD hh:mm:ss) UTC,Instrument flags,absolute air pressure of the measurement (hPa),sample flow rate (lpm),inlet stack bypass flow (lpm),air temperature of the measurement (°C),ambient temperature measured by the external sensor (°C),aerosol sample conditioner tube jacket temperature (°C),OPC LED temperature (°C),internal box temperature (°C),relative humidity of the measurement (%),span deviation,mass concentration of particles derived from Lorenz-Mie calculation of OPC scattering (μg/m³),mass concentration of particles derived from Lorenz-Mie calculation of OPC scattering (μg/m³),mass concentration of particles derived from Lorenz-Mie calculation of OPC scattering (μg/m³)
DateTimeUTC,F1_M11,P_M11,Q1_M11,Q2_M11,T1_M11,T2_M11,T3_M11,T4_M11,T5_M11,U1_M11,ZSPAN_M11,X2_M11,X0_M11,X1_M11
2023-06-16 22:00:00,SystemResetWarning,0833.5,5.01,000.00,030.2,025.0,000.0,038.8,031.2,29.0,0000.0,0001.89,0004.08,0001.59
2023-06-16 22:01:00,SystemResetWarning,0833.4,5.00,000.00,030.1,025.5,000.0,038.7,031.2,29.3,0000.0,0001.88,0004.03,0001.60
2023-06-16 22:02:00,SystemResetWarning,0833.4,5.00,000.00,030.0,026.0,000.0,038.7,031.2,29.3,0000.0,0001.90,0003.98,0001.63
2023-06-16 22:03:00,SystemResetWarning,0833.4,5.01,000.00,030.0,026.4,000.0,038.7,031.3,29.3,0000.0,0001.94,0003.99,0001.65
2023-06-16 22:04:00,SystemResetWarning,0833.4,5.00,000.00,030.0,026.8,000.0,038.7,031.3,29.5,0000.0,0001.95,0003.66,0001.66
2023-06-16 22:05:00,SystemResetWarning,0833.4,4.99,000.00,030.0,027.1,000.0,038.6,031.4,29.9,0000.0,0001.97,0003.24,0001.67
2023-06-16 22:06:00,SystemResetWarning,0833.4,5.00,000.00,030.0,027.4,000.0,038.6,031.4,29.8,0000.0,0002.00,0003.29,0001.70
2023-06-16 22:07:00,SystemResetWarning,0833.4,5.01,000.00,030.0,027.6,000.0,038.6,031.4,29.8,0000.0,0002.04,0003.36,0001.71
2023-06-16 22:08:00,SystemResetWarning,0833.4,5.01,000.00,030.0,027.8,000.0,038.6,031.4,29.8,0000.0,0002.05,0003.35,0001.73
2023-06-16 22:09:00,SystemResetWarning,0833.4,4.99,000.00,030.0,027.9,000.0,038.6,031.5,29.8,0000.0,0002.03,0003.07,0001.73
2023-06-16 22:10:00,SystemResetWarning,0833.4,4.99,000.00,030.0,028.0,000.0,038.6,031.5,29.8,0000.0,0002.05,0003.07,0001.76
2023-06-16 22:11:00,SystemResetWarning,0833.4,5.00,000.00,030.0,028.1,000.0,038.6,031.5,29.8,0000.0,0002.11,0003.20,0001.79
2023-06-16 22:12:00,SystemResetWarning,0833.4,5.00,000.00,030.0,028.2,000.0,038.6,031.5,29.9,0000.0,0002.16,0003.26,0001.83
2023-06-16 22:13:00,SystemResetWarning,0833.3,5.00,000.00,030.0,028.3,000.0,038.6,031.5,30.1,0000.0,0002.22,0003.43,0001.86
2023-06-16 22:14:00,SystemResetWarning,0833.3,5.00,000.00,030.0,028.3,000.0,038.6,031.6,30.2,0000.0,0002.24,0003.51,0001.89
2023-06-16 22:15:00,SystemResetWarning,0833.3,5.00,000.00,030.0,028.4,000.0,038.6,031.6,30.0,0000.0,0002.27,0003.54,0001.92
2023-06-16 22:16:00,SystemResetWarning,0833.2,4.99,000.00,030.1,028.4,000.0,038.6,031.6,30.0,0000.0,0002.26,0003.13,0001.94
2023-06-16 22:17:00,SystemResetWarning,0833.2,5.00,000.00,030.1,028.5,000.0,038.6,031.6,30.2,0000.0,0002.30,0003.20,0001.93
2023-06-16 22:18:00,SystemResetWarning,0833.3,5.00,000.00,030.1,028.5,000.0,038.6,031.7,30.0,0000.0,0002.25,0003.13,0001.92
2023-06-16 22:19:00,SystemResetWarning,0833.2,4.99,000.00,030.1,028.5,000.0,038.6,031.7,29.8,0000.0,0002.19,0003.05,0001.88
2023-06-16 22:20:00,SystemResetWarning,0833.3,5.00,000.00,030.1,028.5,000.0,038.6,031.7,29.6,0000.0,0002.13,0002.98,0001.84
2023-06-16 22:21:00,SystemResetWarning,0833.3,5.00,000.00,030.1,028.6,000.0,038.7,031.7,29.3,0000.0,0002.11,0003.02,0001.79
2023-06-16 22:22:00,SystemResetWarning,0833.3,5.00,000.00,030.1,028.6,000.0,038.7,031.7,29.4,0000.0,0002.03,0002.87,0001.74
2023-06-16 22:23:00,SystemResetWarning,0833.2,5.00,000.00,030.2,028.6,000.0,038.7,031.7,29.7,0000.0,0001.95,0002.78,0001.68
2023-06-16 22:24:00,SystemResetWarning,0833.3,5.00,000.00,030.2,028.6,000.0,038.7,031.8,29.7,0000.0,0001.89,0002.67,0001.62
2023-06-16 22:25:00,SystemResetWarning,0833.3,5.00,000.00,030.2,028.6,000.0,038.7,031.7,29.6,0000.0,0001.84,0002.53,0001.57
2023-06-16 22:26:00,SystemResetWarning,0833.4,5.00,000.00,030.2,028.6,000.0,038.7,031.8,29.5,0000.0,0001.78,0002.41,0001.52
2023-06-16 22:27:00,SystemResetWarning,0833.4,5.00,000.00,030.2,028.7,000.0,038.7,031.8,29.6,0000.0,0001.77,0002.66,0001.47
2023-06-16 22:28:00,SystemResetWarning,0833.4,5.00,000.00,030.2,028.7,000.0,038.7,031.8,29.7,0000.0,0001.73,0002.76,0001.43
2023-06-16 22:29:00,SystemResetWarning,0833.4,5.00,000.00,030.2,028.7,000.0,038.7,031.8,29.8,0000.0,0001.70,0002.77,0001.41
2023-06-16 22:30:00,SystemResetWarning,0833.4,5.00,000.00,030.2,028.7,000.0,038.8,031.8,29.8,0000.0,0001.74,0002.88,0001.41
2023-06-16 22:31:00,SystemResetWarning,0833.4,5.00,000.00,030.2,028.7,000.0,038.8,031.8,29.7,0000.0,0001.74,0003.09,0001.41
2023-06-16 22:32:00,SystemResetWarning,0833.5,5.01,000.00,030.3,028.7,000.0,038.8,031.8,29.6,0000.0,0001.73,0003.06,0001.40
2023-06-16 22:33:00,SystemResetWarning,0833.4,5.00,000.00,030.3,028.7,000.0,038.8,031.8,29.5,0000.0,0001.74,0003.08,0001.41
2023-06-16 22:34:00,SystemResetWarning,0833.4,5.01,000.00,030.3,028.7,000.0,038.8,031.8,29.6,0000.0,0001.78,0003.19,0001.42
2023-06-16 22:35:00,SystemResetWarning,0833.5,5.00,000.00,030.3,028.8,000.0,038.8,031.8,29.4,0000.0,0001.75,0003.11,0001.43
2023-06-16 22:36:00,SystemResetWarning,0833.5,5.00,000.00,030.3,028.8,000.0,038.8,031.9,29.3,0000.0,0001.73,0003.08,0001.43
2023-06-16 22:37:00,SystemResetWarning,0833.6,5.00,000.00,030.3,028.8,000.0,038.8,031.9,29.3,0000.0,0001.76,0003.20,0001.46
2023-06-16 22:38:00,SystemResetWarning,0833.6,5.00,000.00,030.3,028.8,000.0,038.9,031.9,29.2,0000.0,0001.75,0003.03,0001.47
2023-06-16 22:39:00,SystemResetWarning,0833.6,5.00,000.00,030.3,028.8,000.0,038.9,031.9,29.2,0000.0,0001.73,0002.74,0001.47
2023-06-16 22:40:00,SystemResetWarning,0833.6,5.00,000.00,030.3,028.8,000.0,038.9,031.9,29.2,0000.0,0001.77,0002.78,0001.48
2023-06-16 22:41:00,SystemResetWarning,0833.7,5.00,000.00,030.4,028.8,000.0,038.9,031.9,29.4,0000.0,0001.74,0002.67,0001.48
2023-06-16 22:42:00,SystemResetWarning,0833.7,5.00,000.00,030.4,028.8,000.0,038.9,031.9,29.3,0000.0,0001.78,0002.57,0001.48
2023-06-16 22:43:00,SystemResetWarning,0833.7,5.00,000.00,030.4,028.8,000.0,038.9,031.9,29.3,0000.0,0001.79,0002.49,0001.49
2023-06-16 22:44:00,SystemResetWarning,0833.7,5.01,000.00,030.3,028.8,000.0,038.9,031.9,29.3,0000.0,0001.78,0002.42,0001.49
2023-06-16 22:45:00,SystemResetWarning,0833.7,5.00,000.00,030.3,028.8,000.0,038.9,031.9,29.2,0000.0,0001.78,0002.38,0001.50
2023-06-16 22:46:00,SystemResetWarning,0833.7,5.00,000.00,030.3,028.8,000.0,038.9,031.8,29.2,0000.0,0001.81,0002.46,0001.51
2023-06-16 22:47:00,SystemResetWarning,0833.6,5.00,000.00,030.3,028.8,000.0,038.9,031.8,29.4,0000.0,0001.82,0002.51,0001.50
2023-06-16 22:48:00,SystemResetWarning,0833.7,5.00,000.00,030.3,028.8,000.0,038.9,031.8,29.4,0000.0,0001.82,0002.40,0001.49
2023-06-16 22:49:00,SystemResetWarning,0833.7,5.00,000.00,030.3,028.8,000.0,038.9,031.8,29.3,0000.0,0001.82,0002.38,0001.48
2023-06-16 22:50:00,SystemResetWarning,0833.7,5.00,000.00,030.3,028.8,000.0,038.9,031.8,29.2,0000.0,0001.80,0002.33,0001.47
2023-06-16 22:51:00,SystemResetWarning,0833.7,5.00,000.00,030.3,028.8,000.0,038.9,031.8,29.3,0000.0,0001.75,0002.26,0001.45
2023-06-16 22:52:00,SystemResetWarning,0833.7,5.00,000.00,030.3,028.8,000.0,038.9,031.8,29.6,0000.0,0001.76,0002.34,0001.45
2023-06-16 22:53:00,SystemResetWarning,0833.7,5.00,000.00,030.3,028.8,000.0,038.9,031.8,29.6,0000.0,0001.74,0002.40,0001.46
2023-06-16 22:54:00,SystemResetWarning,0833.6,5.00,000.00,030.3,028.8,000.0,038.9,031.8,29.7,0000.0,0001.79,0002.52,0001.46
2023-06-16 22:55:00,SystemResetWarning,0833.7,5.00,000.00,030.3,028.8,000.0,038.9,031.8,29.7,0000.0,0001.80,0002.66,0001.46
2023-06-16 22:56:00,SystemResetWarning,0833.6,5.00,000.00,030.3,028.8,000.0,039.0,031.8,29.8,0000.0,0001.82,0002.72,0001.47
2023-06-16 22:57:00,SystemResetWarning,0833.5,5.00,000.00,030.3,028.8,000.0,039.0,031.8,29.8,0000.0,0001.84,0002.74,0001.49
2023-06-16 22:58:00,SystemResetWarning,0833.5,5.00,000.00,030.3,028.8,000.0,039.0,031.8,29.8,0000.0,0001.87,0002.80,0001.51
2023-06-16 22:59:00,SystemResetWarning,0833.5,5.01,000.00,030.4,028.8,000.0,039.0,031.9,30.0,0000.0,0001.89,0002.87,0001.53
